When you browse on this site, cookies collect data to enhance your experience and personalize the content and advertising you see.
Visit our Privacy Policy to learn more. By continuing to use the site, you agree to this use of cookies and data.
  • In United Kingdom
  • List of Countries
  • For 7 days
  • Water Temperature
  • Weather Map
  • Weather Widgets
  • user-avatar
    Login

    Hourly Weather Francistown

    Today, 6 April, Monday

    Time Temperature Precipitation Wind Pressure Humidity
    00:00 +22°C° 0 mm 1 mps 676 mmHg 38%
    01:00 +21°C° 0 mm 1 mps 676 mmHg 39%
    02:00 +21°C° 0 mm 1 mps 676 mmHg 40%
    03:00 +20°C° 0 mm 1 mps 675 mmHg 41%
    04:00 +20°C° 0 mm 1 mps 675 mmHg 41%
    05:00 +20°C° 0 mm 1 mps 675 mmHg 42%
    06:00 +21°C° 0 mm 1 mps 676 mmHg 39%
    07:00 +22°C° 0 mm 1 mps 676 mmHg 36%
    08:00 +24°C° 0 mm 1 mps 677 mmHg 34%
    09:00 +26°C° 0 mm 1 mps 677 mmHg 30%
    10:00 +29°C° 0 mm 1 mps 677 mmHg 26%
    11:00 +32°C° 0 mm 1 mps 678 mmHg 21%
    12:00 +32°C° 0 mm 1 mps 677 mmHg 20%
    13:00 +34°C° 0 mm 2 mps 676 mmHg 18%
    14:00 +35°C° 0 mm 2 mps 676 mmHg 17%
    15:00 +35°C° 0 mm 2 mps 675 mmHg 17%
    16:00 +34°C° 0 mm 2 mps 675 mmHg 18%
    17:00 +33°C° 0 mm 1 mps 675 mmHg 18%
    18:00 +31°C° 0 mm 1 mps 675 mmHg 21%
    19:00 +29°C° 0 mm 1 mps 675 mmHg 25%
    20:00 +26°C° 0 mm 1 mps 674 mmHg 28%
    21:00 +26°C° 0 mm 2 mps 675 mmHg 32%
    22:00 +25°C° 0 mm 3 mps 675 mmHg 35%
    23:00 +23°C° 0 mm 4 mps 675 mmHg 39%

    Tomorrow, 7 April, Tuesday

    Time Temperature Precipitation Wind Pressure Humidity
    00:00 +23°C° 0 mm 4 mps 675 mmHg 42%
    01:00 +22°C° 0 mm 4 mps 674 mmHg 46%
    02:00 +21°C° 0 mm 4 mps 674 mmHg 49%
    03:00 +21°C° 0 mm 4 mps 674 mmHg 52%
    04:00 +21°C° 0 mm 4 mps 674 mmHg 54%
    05:00 +20°C° 0 mm 4 mps 674 mmHg 57%
    06:00 +22°C° 0 mm 4 mps 675 mmHg 55%
    07:00 +23°C° 0 mm 4 mps 676 mmHg 53%
    08:00 +25°C° 0 mm 4 mps 676 mmHg 50%
    09:00 +28°C° 0 mm 4 mps 677 mmHg 40%
    10:00 +32°C° 0 mm 4 mps 677 mmHg 30%
    11:00 +35°C° 0 mm 4 mps 678 mmHg 20%
    12:00 +35°C° 0 mm 3 mps 677 mmHg 19%
    13:00 +36°C° 0 mm 3 mps 676 mmHg 17%
    14:00 +37°C° 0 mm 3 mps 676 mmHg 15%
    15:00 +37°C° 0 mm 3 mps 675 mmHg 15%
    16:00 +36°C° 0 mm 2 mps 675 mmHg 15%
    17:00 +36°C° 0 mm 2 mps 675 mmHg 16%
    18:00 +34°C° 0 mm 2 mps 675 mmHg 18%
    19:00 +31°C° 0 mm 1 mps 675 mmHg 20%
    20:00 +29°C° 0 mm 1 mps 675 mmHg 22%
    21:00 +28°C° 0 mm 1 mps 675 mmHg 24%
    22:00 +27°C° 0 mm 2 mps 675 mmHg 25%
    23:00 +26°C° 0 mm 2 mps 675 mmHg 27%

    Day after tomorrow, 8 April, Wednesday

    Time Temperature Precipitation Wind Pressure Humidity
    00:00 +26°C° 0 mm 2 mps 675 mmHg 29%
    01:00 +25°C° 0 mm 2 mps 676 mmHg 31%
    02:00 +24°C° 0 mm 3 mps 676 mmHg 33%
    03:00 +23°C° 0 mm 4 mps 676 mmHg 41%
    04:00 +22°C° 0 mm 5 mps 676 mmHg 49%
    05:00 +21°C° 0 mm 6 mps 676 mmHg 57%
    06:00 +21°C° 0 mm 7 mps 677 mmHg 63%
    07:00 +21°C° 0 mm 7 mps 678 mmHg 69%
    08:00 +21°C° 0 mm 7 mps 678 mmHg 75%
    09:00 +23°C° 0 mm 7 mps 679 mmHg 67%
    10:00 +26°C° 0 mm 7 mps 679 mmHg 59%
    11:00 +28°C° 0 mm 7 mps 680 mmHg 51%
    12:00 +29°C° 0 mm 7 mps 680 mmHg 47%
    13:00 +30°C° 0 mm 7 mps 679 mmHg 43%
    14:00 +32°C° 0 mm 7 mps 679 mmHg 39%
    15:00 +30°C° 0 mm 7 mps 678 mmHg 44%
    16:00 +29°C° 0 mm 7 mps 678 mmHg 48%
    17:00 +28°C° 0 mm 8 mps 678 mmHg 52%
    18:00 +26°C° 0 mm 7 mps 678 mmHg 59%
    19:00 +23°C° 0 mm 7 mps 678 mmHg 66%
    20:00 +21°C° 0 mm 7 mps 679 mmHg 72%
    21:00 +21°C° 0 mm 7 mps 679 mmHg 74%
    22:00 +20°C° 0 mm 8 mps 680 mmHg 75%
    23:00 +20°C° 0 mm 8 mps 680 mmHg 77%

    9 April, Thursday

    Time Temperature Precipitation Wind Pressure Humidity
    00:00 +20°C° 0 mm 8 mps 680 mmHg 75%
    01:00 +20°C° 0 mm 8 mps 680 mmHg 73%
    02:00 +20°C° 0 mm 7 mps 680 mmHg 71%
    03:00 +20°C° 0 mm 7 mps 680 mmHg 71%
    04:00 +20°C° 0 mm 7 mps 680 mmHg 71%
    05:00 +20°C° 0 mm 7 mps 681 mmHg 71%
    06:00 +20°C° 0 mm 7 mps 681 mmHg 72%
    07:00 +20°C° 0 mm 7 mps 681 mmHg 73%
    08:00 +20°C° 0 mm 8 mps 682 mmHg 73%
    09:00 +21°C° 0 mm 8 mps 682 mmHg 70%
    10:00 +22°C° 0 mm 8 mps 682 mmHg 66%
    11:00 +23°C° 0 mm 8 mps 682 mmHg 62%
    12:00 +23°C° 0 mm 8 mps 681 mmHg 61%
    13:00 +23°C° 0 mm 8 mps 680 mmHg 61%
    14:00 +23°C° 0 mm 8 mps 680 mmHg 60%
    15:00 +23°C° 0 mm 7 mps 680 mmHg 59%
    16:00 +23°C° 0 mm 7 mps 680 mmHg 58%
    17:00 +23°C° 0 mm 7 mps 680 mmHg 57%
    18:00 +22°C° 0 mm 6 mps 680 mmHg 62%
    19:00 +21°C° 0 mm 6 mps 680 mmHg 68%
    20:00 +19°C° 0 mm 6 mps 680 mmHg 73%
    21:00 +19°C° 0 mm 6 mps 680 mmHg 73%
    22:00 +19°C° 0 mm 6 mps 680 mmHg 73%
    23:00 +19°C° 0 mm 6 mps 680 mmHg 73%

    10 April, Friday

    Time Temperature Precipitation Wind Pressure Humidity
    00:00 +19°C° 0 mm 6 mps 680 mmHg 74%
    01:00 +19°C° 0 mm 5 mps 680 mmHg 75%
    02:00 +19°C° 0 mm 5 mps 680 mmHg 76%
    03:00 +17°C° 0 mm 5 mps 680 mmHg 77%
    04:00 +17°C° 0 mm 5 mps 680 mmHg 77%
    05:00 +18°C° 0 mm 4 mps 680 mmHg 77%
    06:00 +17°C° 0 mm 5 mps 680 mmHg 76%
    07:00 +17°C° 0 mm 5 mps 680 mmHg 75%
    08:00 +19°C° 0 mm 6 mps 681 mmHg 73%
    09:00 +21°C° 0 mm 5 mps 681 mmHg 64%
    10:00 +25°C° 0 mm 5 mps 681 mmHg 55%
    11:00 +27°C° 0 mm 5 mps 681 mmHg 46%
    12:00 +29°C° 0 mm 4 mps 681 mmHg 42%
    13:00 +30°C° 0 mm 4 mps 680 mmHg 38%
    14:00 +31°C° 0 mm 3 mps 680 mmHg 34%
    15:00 +30°C° 0 mm 3 mps 679 mmHg 35%
    16:00 +30°C° 0 mm 4 mps 679 mmHg 36%
    17:00 +29°C° 0 mm 4 mps 679 mmHg 37%
    18:00 +28°C° 0 mm 3 mps 679 mmHg 43%
    19:00 +26°C° 0 mm 3 mps 678 mmHg 48%
    20:00 +24°C° 0 mm 2 mps 678 mmHg 53%
    21:00 +23°C° 0 mm 2 mps 678 mmHg 56%
    22:00 +22°C° 0 mm 3 mps 678 mmHg 59%
    23:00 +21°C° 0 mm 3 mps 679 mmHg 61%

    11 April, Saturday

    Time Temperature Precipitation Wind Pressure Humidity
    00:00 +20°C° 0 mm 3 mps 678 mmHg 63%
    01:00 +19°C° 0 mm 2 mps 678 mmHg 65%
    02:00 +19°C° 0 mm 2 mps 678 mmHg 67%
    03:00 +19°C° 0 mm 2 mps 678 mmHg 69%
    04:00 +18°C° 0 mm 2 mps 678 mmHg 70%
    05:00 +18°C° 0 mm 2 mps 678 mmHg 71%
    06:00 +19°C° 0 mm 2 mps 678 mmHg 66%
    07:00 +21°C° 0 mm 2 mps 679 mmHg 60%
    08:00 +23°C° 0 mm 1 mps 679 mmHg 55%
    09:00 +26°C° 0 mm 1 mps 679 mmHg 47%
    10:00 +28°C° 0 mm 1 mps 679 mmHg 40%
    11:00 +31°C° 0 mm 1 mps 680 mmHg 32%
    12:00 +32°C° 0 mm 1 mps 679 mmHg 29%
    13:00 +33°C° 0 mm 1 mps 678 mmHg 26%
    14:00 +34°C° 0 mm 1 mps 678 mmHg 23%
    15:00 +34°C° 0 mm 1 mps 677 mmHg 23%
    16:00 +33°C° 0 mm 1 mps 677 mmHg 22%
    17:00 +33°C° 0 mm 1 mps 677 mmHg 22%
    18:00 +31°C° 0 mm 1 mps 677 mmHg 25%
    19:00 +29°C° 0 mm 1 mps 677 mmHg 27%
    20:00 +28°C° 0 mm 2 mps 677 mmHg 30%
    21:00 +26°C° 0 mm 2 mps 677 mmHg 32%
    22:00 +25°C° 0 mm 2 mps 677 mmHg 35%
    23:00 +24°C° 0 mm 3 mps 677 mmHg 37%
    Show more